Temp
-8 -7 -7 -8 -9 -9 -7 -7 -6 -7 -6 -6 -6 -7 -6 -5 -5 -5 -6 -6 -5 -4 -5 -5 -6 -6 -7 -6 -7 -8 -8 -8 -8 -7 -7 -7 -7 -7 -7 -7 -7 -7 -7 -7
-8 -8 -10 -9 -9 -8 -8 -8 -8 -7 -7 -6 -6 -6 -6 -6 -6 -6 -5 -5 -4 -4 -5 -5 -5 -6 -7 -7 -7 -7 -8 -7 -7 -7 -7 -7 -7 -7 -7 -7 -6 -7 -7 -7
-9 -10 -10 -10 -9 -9 -8 -8 -8 -8 -7 -8 -6 -6 -6 -6 -6 -6 -6 -5 -4 -5 -5 -6 -6 -5 -7 -6 -7 -7 -8 -7 -7 -7 -7 -6 -7 -7 -7 -7 -7 -7 -7 -7
-10 -10 -10 -10 -9 -9 -9 -8 -8 -8 -8 -7 -7 -6 -7 -6 -6 -6 -5 -4 -4 -5 -5 -5 -5 -6 -6 -6 -6 -7 -7 -7 -7 -7 -7 -7 -7 -7 -7 -7 -7 -6 -7 -7
-11 -11 -11 -9 -9 -8 -9 -9 -8 -7 -7 -7 -6 -6 -6 -6 -6 -6 -6 -6 -4 -5 -5 -5 -6 -6 -6 -6 -6 -6 -6 -7 -7 -7 -7 -7 -7 -7 -7 -7 -7 -6 -6 -7
-11 -12 -11 -10 -10 -9 -9 -9 -9 -8 -8 -7 -6 -7 -7 -7 -6 -7 -7 -6 -5 -5 -5 -5 -6 -6 -6 -6 -6 -6 -6 -6 -7 -7 -7 -7 -7 -7 -6 -7 -7 -6 -6 -6
-12 -11 -11 -11 -12 -11 -9 -9 -9 -9 -8 -7 -7 -7 -7 -6 -7 -6 -6 -6 -5 -6 -5 -6 -6 -6 -6 -6 -6 -6 -6 -6 -6 -7 -7 -7 -7 -7 -7 -7 -7 -7 -7 -7
-12 -12 -12 -11 -11 -9 -10 -9 -9 -9 -8 -8 -8 -8 -7 -7 -8 -7 -6 -6 -6 -6 -6 -6 -6 -6 -6 -6 -6 -6 -6 -6 -6 -6 -7 -7 -7 -7 -7 -7 -7 -7 -7 -6
-12 -12 -12 -12 -12 -12 -10 -10 -10 -9 -9 -9 -8 -8 -8 -7 -7 -7 -6 -6 -6 -5 -5 -6 -6 -6 -6 -5 -6 -6 -6 -6 -6 -6 -6 -7 -7 -7 -7 -7 -7 -7 -6 -6
-12 -12 -12 -11 -11 -11 -11 -11 -10 -9 -9 -9 -9 -8 -7 -8 -8 -7 -7 -7 -7 -6 -5 -5 -5 -5 -6 -6 -6 -6 -6 -5 -6 -6 -6 -6 -7 -7 -7 -7 -7 -7 -7 -7
-12 -12 -12 -12 -11 -11 -11 -11 -11 -10 -9 -9 -10 -9 -9 -9 -9 -8 -7 -6 -7 -8 -6 -6 -5 -5 -5 -5 -6 -6 -6 -6 -6 -6 -6 -6 -6 -7 -7 -7 -7 -7 -7 -7
-13 -12 -12 -12 -12 -12 -12 -11 -11 -10 -10 -10 -10 -10 -10 -10 -8 -8 -7 -5 -5 -7 -6 -7 -6 -5 -6 -6 -7 -7 -6 -6 -6 -6 -6 -6 -6 -6 -7 -7 -7 -7 -7 -7
-13 -12 -12 -12 -12 -12 -12 -11 -11 -11 -10 -10 -10 -10 -9 -9 -8 -8 -7 -7 -6 -7 -8 -7 -6 -6 -6 -5 -6 -7 -6 -6 -6 -6 -6 -7 -6 -6 -7 -7 -7 -7 -7 -7
-12 -12 -12 -12 -12 -12 -12 -12 -12 -11 -11 -10 -10 -10 -10 -8 -8 -7 -8 -7 -7 -7 -7 -7 -7 -6 -6 -6 -6 -6 -6 -6 -6 -6 -7 -7 -7 -6 -6 -6 -7 -7 -7 -7
-13 -12 -12 -12 -12 -12 -12 -12 -12 -11 -11 -11 -10 -10 -10 -9 -9 -6 -7 -7 -7 -6 -7 -7 -6 -7 -7 -7 -6 -7 -6 -7 -6 -6 -8 -8 -7 -7 -6 -7 -6 -7 -7 -7
-13 -13 -13 -13 -13 -12 -12 -12 -12 -12 -11 -11 -11 -10 -10 -10 -9 -7 -7 -7 -8 -8 -8 -8 -8 -7 -8 -7 -7 -6 -7 -7 -6 -5 -6 -7 -8 -6 -6 -6 -7 -6 -7 -7
-13 -12 -12 -13 -13 -13 -12 -12 -12 -12 -12 -11 -11 -10 -9 -9 -9 -8 -7 -7 -7 -6 -7 -7 -7 -8 -8 -8 -7 -7 -7 -7 -6 -7 -7 -6 -6 -6 -7 -7 -7 -7 -7 -7
-13 -13 -12 -13 -14 -13 -12 -12 -12 -12 -12 -11 -11 -10 -10 -9 -10 -9 -8 -8 -8 -8 -7 -6 -6 -5 -7 -8 -7 -7 -7 -7 -7 -7 -6 -7 -6 -7 -7 -7 -7 -7 -8 -7
-13 -13 -13 -13 -14 -13 -13 -12 -12 -12 -12 -11 -11 -11 -11 -11 -10 -10 -9 -9 -9 -9 -9 -7 -8 -9 -8 -6 -8 -8 -8 -8 -7 -7 -7 -6 -7 -7 -7 -7 -6 -6 -6 -6
-13 -13 -13 -13 -14 -14 -14 -13 -13 -12 -12 -12 -12 -11 -11 -11 -11 -11 -10 -9 -9 -9 -10 -9 -9 -9 -9 -8 -8 -8 -8 -8 -8 -8 -8 -7 -7 -7 -7 -7 -7 -7 -8 -7
-14 -14 -13 -13 -13 -13 -13 -14 -14 -13 -12 -12 -12 -12 -12 -11 -11 -11 -11 -11 -10 -10 -10 -11 -11 -10 -10 -9 -9 -9 -8 -8 -9 -9 -9 -8 -8 -8 -8 -8 -8 -7 -8 -8
-14 -14 -14 -14 -14 -14 -14 -15 -15 -14 -13 -12 -12 -12 -12 -11 -11 -11 -11 -11 -11 -11 -11 -10 -11 -11 -10 -10 -10 -10 -9 -9 -10 -9 -9 -9 -9 -8 -8 -8 -8 -8 -8 -8
-14 -14 -14 -14 -15 -15 -15 -15 -15 -15 -14 -14 -13 -13 -13 -13 -12 -12 -12 -11 -12 -12 -12 -12 -12 -12 -10 -11 -10 -10 -9 -9 -9 -9 -9 -9 -9 -9 -9 -9 -8 -8 -8 -8
-14 -14 -14 -15 -15 -15 -16 -15 -15 -15 -14 -14 -14 -14 -14 -14 -14 -13 -13 -12 -12 -12 -12 -12 -11 -10 -10 -11 -10 -9 -9 -10 -10 -10 -10 -10 -9 -9 -10 -9 -9 -9 -9 -9
-13 -14 -14 -15 -16 -16 -17 -17 -17 -16 -15 -15 -14 -14 -14 -14 -13 -13 -13 -13 -13 -13 -12 -12 -12 -12 -12 -11 -10 -10 -10 -10 -10 -11 -10 -10 -10 -10 -10 -10 -10 -10 -10 -9
-13 -14 -14 -15 -15 -15 -16 -16 -16 -17 -15 -15 -15 -15 -14 -14 -13 -14 -14 -14 -13 -13 -12 -12 -12 -12 -12 -12 -12 -11 -11 -12 -12 -11 -11 -11 -11 -10 -10 -10 -10 -10 -10 -10
Height
5856 5863 5870 5878 5883 5883 5885 5886 5888 5889 5888 5889 5894 5895 5896 5897 5898 5898 5899 5906 5908 5911 5914 5916 5918 5918 5918 5921 5922 5923 5923 5925 5925 5925 5928 5931 5932 5934 5935 5936 5937 5939 5942 5941
5853 5860 5869 5873 5878 5879 5876 5881 5885 5885 5880 5886 5889 5892 5893 5895 5896 5895 5898 5904 5909 5912 5914 5917 5919 5919 5921 5921 5924 5925 5924 5926 5928 5927 5927 5929 5932 5933 5936 5937 5939 5941 5941 5942
5849 5863 5865 5870 5874 5875 5873 5879 5880 5884 5885 5885 5887 5887 5891 5894 5893 5894 5898 5901 5906 5912 5916 5917 5919 5921 5921 5922 5923 5926 5926 5926 5927 5930 5930 5930 5931 5933 5936 5939 5940 5942 5942 5944
5849 5853 5860 5865 5869 5872 5874 5876 5880 5881 5885 5884 5886 5888 5888 5890 5892 5894 5898 5902 5905 5908 5913 5915 5917 5920 5922 5923 5924 5925 5926 5927 5928 5931 5932 5931 5932 5933 5935 5939 5941 5941 5942 5944
5847 5850 5858 5861 5867 5864 5871 5874 5875 5878 5878 5881 5883 5886 5883 5886 5888 5891 5896 5900 5901 5906 5909 5913 5915 5920 5923 5923 5923 5926 5926 5927 5929 5931 5933 5934 5933 5934 5935 5937 5940 5943 5945 5945
5842 5845 5851 5858 5862 5862 5863 5871 5873 5876 5876 5879 5881 5884 5879 5882 5886 5888 5891 5895 5898 5902 5907 5910 5913 5919 5922 5925 5926 5925 5926 5928 5930 5932 5934 5935 5936 5936 5938 5939 5940 5944 5945 5947
5840 5845 5851 5853 5855 5859 5865 5868 5869 5872 5874 5879 5878 5882 5885 5883 5881 5883 5887 5889 5892 5899 5904 5908 5912 5914 5918 5921 5924 5925 5926 5927 5930 5932 5933 5936 5937 5938 5939 5941 5942 5944 5946 5948
5840 5847 5848 5851 5855 5859 5865 5867 5868 5871 5874 5876 5877 5880 5883 5884 5885 5884 5888 5889 5891 5896 5901 5905 5907 5909 5916 5919 5921 5924 5925 5926 5928 5931 5933 5935 5938 5938 5939 5940 5942 5944 5947 5947
5839 5843 5846 5850 5856 5859 5860 5863 5864 5867 5871 5874 5876 5878 5881 5883 5885 5888 5891 5894 5895 5895 5896 5899 5902 5907 5911 5914 5918 5921 5923 5925 5927 5928 5931 5935 5937 5938 5939 5941 5940 5941 5944 5947
5835 5841 5844 5850 5851 5856 5857 5861 5865 5866 5869 5872 5873 5874 5873 5882 5883 5886 5891 5894 5895 5896 5897 5897 5899 5903 5906 5910 5914 5918 5919 5923 5925 5927 5929 5931 5935 5939 5940 5940 5941 5941 5943 5945
5832 5838 5843 5847 5850 5853 5855 5859 5864 5867 5869 5871 5873 5874 5872 5879 5882 5886 5889 5890 5892 5895 5898 5899 5897 5900 5904 5907 5910 5914 5915 5919 5921 5924 5927 5928 5930 5935 5939 5940 5939 5940 5942 5943
5829 5833 5839 5844 5844 5848 5855 5856 5860 5862 5867 5869 5871 5874 5875 5878 5882 5880 5882 5885 5887 5887 5894 5896 5895 5897 5901 5904 5907 5910 5912 5916 5918 5920 5924 5926 5927 5930 5935 5938 5939 5938 5938 5940
5827 5830 5836 5840 5844 5846 5849 5852 5855 5857 5861 5864 5868 5871 5872 5873 5880 5881 5879 5882 5879 5885 5890 5891 5894 5894 5898 5901 5902 5906 5909 5912 5913 5916 5918 5923 5924 5925 5928 5932 5935 5937 5937 5937
5824 5829 5832 5836 5839 5843 5846 5848 5850 5851 5854 5859 5861 5865 5866 5870 5878 5879 5878 5879 5880 5883 5886 5886 5888 5891 5893 5896 5899 5902 5904 5906 5905 5907 5911 5917 5920 5922 5924 5927 5929 5932 5933 5933
5819 5825 5828 5833 5837 5841 5844 5843 5844 5846 5850 5854 5858 5861 5862 5865 5871 5876 5877 5879 5879 5879 5880 5880 5882 5883 5886 5892 5894 5896 5897 5899 5901 5901 5905 5910 5912 5916 5919 5922 5924 5925 5928 5930
5819 5819 5824 5826 5832 5835 5836 5838 5842 5844 5849 5851 5853 5856 5858 5858 5863 5872 5873 5872 5873 5873 5874 5874 5873 5879 5882 5886 5889 5890 5891 5892 5895 5898 5900 5901 5905 5909 5911 5914 5918 5920 5922 5924
5816 5817 5820 5824 5827 5832 5835 5833 5840 5841 5843 5844 5847 5848 5851 5852 5856 5864 5867 5865 5864 5865 5865 5856 5866 5870 5874 5880 5883 5884 5885 5886 5889 5889 5892 5895 5897 5900 5904 5906 5908 5911 5913 5916
5813 5815 5818 5821 5823 5827 5829 5829 5835 5835 5838 5839 5842 5844 5846 5848 5848 5854 5858 5859 5859 5858 5864 5854 5847 5864 5865 5869 5874 5879 5880 5882 5885 5886 5883 5888 5887 5894 5896 5897 5899 5902 5905 5909
5807 5808 5812 5816 5819 5822 5823 5822 5825 5825 5830 5834 5836 5838 5839 5842 5846 5848 5853 5856 5855 5856 5860 5859 5847 5850 5847 5857 5864 5869 5872 5875 5880 5881 5883 5883 5885 5888 5891 5894 5895 5897 5898 5901
5805 5807 5811 5812 5814 5816 5819 5821 5820 5822 5827 5829 5832 5833 5835 5836 5839 5843 5846 5851 5851 5850 5853 5859 5858 5858 5861 5861 5865 5864 5866 5868 5870 5874 5878 5882 5884 5884 5886 5887 5891 5893 5894 5895
5803 5804 5805 5807 5808 5809 5811 5813 5814 5816 5821 5824 5825 5826 5827 5829 5832 5836 5838 5840 5844 5844 5846 5851 5855 5856 5856 5857 5859 5861 5862 5866 5868 5871 5875 5877 5880 5882 5884 5886 5888 5889 5890 5890
5801 5801 5801 5802 5803 5803 5804 5806 5811 5811 5811 5816 5818 5819 5821 5824 5826 5829 5830 5832 5833 5834 5835 5837 5842 5848 5850 5854 5854 5855 5856 5857 5861 5864 5869 5873 5875 5876 5877 5879 5880 5881 5883 5884
5798 5798 5798 5798 5797 5796 5795 5796 5799 5801 5804 5806 5810 5812 5813 5816 5818 5821 5823 5824 5825 5827 5827 5828 5831 5837 5840 5842 5846 5847 5848 5851 5853 5856 5859 5861 5864 5867 5869 5871 5873 5874 5875 5875
5794 5794 5792 5791 5790 5785 5783 5784 5786 5790 5793 5800 5800 5802 5804 5807 5809 5811 5813 5815 5817 5819 5820 5820 5821 5823 5827 5830 5833 5836 5837 5839 5842 5846 5848 5851 5854 5857 5860 5861 5863 5866 5867 5866
5791 5789 5785 5782 5777 5772 5770 5771 5773 5777 5781 5789 5791 5792 5797 5798 5801 5804 5805 5806 5808 5811 5812 5812 5812 5814 5817 5819 5821 5825 5826 5827 5829 5832 5835 5838 5839 5843 5846 5848 5850 5851 5853 5855
5787 5784 5781 5777 5772 5767 5765 5765 5764 5766 5771 5781 5783 5783 5785 5790 5792 5795 5800 5801 5801 5803 5804 5804 5804 5804 5806 5808 5810 5812 5813 5813 5814 5817 5819 5822 5824 5826 5829 5832 5833 5836 5838 5840
Wind_Speed
38 35 33 25 17 18 23 24 19 19 9 9 12 12 10 8 13 18 20 12 10 7 4 5 8 10 8 7 8 10 11 9 9 12 12 11 10 11 10 10 9 9 11 14
37 35 31 29 26 24 22 27 22 28 12 17 16 13 12 11 15 19 16 13 15 6 7 4 7 10 10 9 8 9 11 10 8 11 13 13 11 10 11 7 9 10 12 12
36 29 33 32 28 25 28 31 18 20 16 12 8 13 15 12 12 11 12 11 10 11 12 9 6 8 10 10 13 10 10 12 12 10 11 13 12 10 10 12 8 10 12 9
31 35 37 34 30 30 27 20 24 23 23 18 16 21 19 13 12 16 13 11 9 8 11 12 10 10 11 12 11 14 11 11 12 10 8 12 12 13 11 11 8 10 11 10
27 34 37 34 31 28 27 27 26 22 14 16 21 19 20 19 13 17 13 9 9 12 15 13 13 11 12 13 13 12 13 13 12 12 10 9 13 12 11 12 9 8 12 12
30 35 38 34 24 33 23 23 21 26 25 21 14 7 3 15 20 8 13 16 14 19 15 13 18 15 14 12 12 13 12 11 11 13 14 11 11 13 12 12 12 10 8 9
28 33 35 30 21 28 31 17 13 15 15 12 1 14 5 12 21 19 14 15 15 24 22 16 18 18 16 14 13 12 12 12 11 11 12 12 10 10 11 13 13 12 10 9
28 31 27 28 23 32 26 22 18 15 11 11 6 8 12 6 8 13 14 16 21 21 24 22 22 22 21 18 16 15 14 13 13 13 13 12 13 11 11 11 11 11 11 11
29 30 23 20 21 25 27 13 12 13 10 5 6 4 7 4 2 1 6 3 13 13 14 20 13 23 23 21 19 19 17 16 15 16 15 14 12 12 11 12 12 10 9 9
28 27 24 20 18 21 30 12 11 14 10 1 4 7 2 2 5 12 14 11 15 12 10 13 12 12 20 21 22 20 19 18 16 16 17 16 15 15 14 13 12 11 11 10
29 32 19 19 23 19 31 30 20 22 26 15 5 9 11 3 9 3 16 10 24 23 19 17 16 14 15 13 20 19 24 21 19 19 20 19 19 17 16 15 14 14 14 14
16 28 25 22 15 13 25 28 24 22 20 21 13 9 14 10 9 6 6 12 20 32 29 24 20 17 17 17 19 19 21 24 23 22 21 22 20 17 17 16 15 15 15 15
21 28 27 27 21 20 25 33 28 29 27 23 20 25 22 18 11 3 5 5 4 31 32 25 22 19 16 15 18 19 21 23 21 27 26 25 23 21 20 19 19 17 15 13
25 23 31 30 27 23 22 24 35 32 32 32 29 25 32 32 16 11 11 8 8 17 13 21 24 25 22 19 20 22 17 23 22 36 31 28 26 25 24 23 21 20 18 17
19 25 37 37 28 29 24 24 31 32 32 31 34 32 29 33 26 15 16 19 12 17 24 26 24 24 22 22 24 22 22 24 26 30 35 28 29 28 27 26 26 24 22 20
19 22 27 27 17 16 24 30 30 27 26 24 25 31 38 39 37 25 18 13 16 15 27 33 33 28 24 23 20 22 26 24 19 20 35 31 32 31 32 30 28 26 24 23
27 29 28 28 24 20 23 30 37 31 31 32 33 35 38 41 40 37 32 32 28 22 20 32 37 36 22 19 21 23 23 25 19 26 29 33 36 33 33 34 29 27 27 26
20 20 28 29 26 24 25 33 36 40 36 33 34 37 38 39 38 35 38 35 33 34 24 20 22 18 25 27 26 23 24 22 23 25 20 27 24 28 31 35 31 30 28 27
19 23 20 23 30 28 24 22 24 27 41 44 43 39 36 33 33 31 31 29 33 31 25 38 31 18 13 22 24 25 23 22 25 23 20 22 23 19 26 27 25 26 27 23
12 16 15 16 21 32 36 29 31 33 29 33 42 40 37 38 36 35 39 39 39 37 35 29 28 25 21 26 25 16 15 23 24 25 24 24 29 26 23 21 23 25 24 28
11 13 14 16 19 23 34 41 42 38 40 35 34 35 33 36 38 37 37 40 48 49 45 33 30 35 35 33 30 28 30 32 28 24 22 26 28 29 29 27 26 25 26 27
13 16 17 18 19 22 24 31 37 39 45 47 44 43 43 43 38 35 36 37 39 43 46 46 36 29 31 38 38 35 34 33 32 31 28 33 35 33 31 31 31 31 31 30
10 13 17 21 22 24 28 31 31 34 39 40 40 41 39 41 42 45 47 39 37 36 38 34 35 36 33 27 34 36 34 35 35 38 38 35 37 39 39 38 37 36 36 36
9 12 16 19 21 28 28 31 36 37 40 37 39 34 35 32 29 37 31 33 29 27 26 27 27 30 41 51 41 42 45 43 42 43 45 45 46 45 47 47 45 44 42 42
11 16 20 21 24 23 25 25 29 38 40 31 33 37 37 31 30 28 31 29 30 32 27 23 21 24 32 39 43 49 45 46 47 46 46 47 46 48 49 50 50 50 49 48
12 16 21 23 24 17 15 22 26 28 38 32 24 24 29 36 38 36 29 24 24 25 30 31 28 25 27 32 37 46 50 50 48 49 49 49 48 47 49 52 53 52 51 48
Wind_Direction
213 213 217 218 189 210 212 224 214 230 246 249 191 232 254 267 271 270 244 226 214 217 194 163 159 139 147 146 161 143 123 110 115 115 127 145 140 136 138 130 115 99 133 121
214 211 205 205 194 199 209 201 221 234 265 265 183 212 242 261 277 253 233 223 198 200 224 188 168 146 174 142 143 164 139 132 118 117 120 125 133 137 135 132 126 130 129 123
211 199 200 203 203 209 225 216 242 236 243 257 267 235 220 244 262 212 218 236 217 195 199 180 203 156 176 171 149 163 154 142 121 117 127 123 122 123 125 139 141 134 133 139
204 199 199 202 204 216 221 247 225 268 253 260 253 272 230 207 237 213 216 218 207 186 198 190 186 176 176 183 164 153 164 153 138 128 127 130 135 136 131 130 148 131 129 137
188 196 197 207 207 222 210 224 221 245 261 265 260 261 224 207 209 224 220 245 238 195 209 212 191 192 185 187 163 166 158 160 150 137 133 134 133 131 128 126 141 140 142 162
185 190 196 203 207 223 195 238 238 239 246 275 282 188 101 175 176 178 203 226 217 215 222 202 187 195 193 186 187 172 167 161 158 151 147 145 145 141 139 139 140 139 146 164
183 191 196 198 181 233 192 203 167 172 224 243 128 248 198 152 146 157 167 170 211 194 216 200 195 220 206 193 192 182 178 181 167 167 161 157 146 145 144 145 146 148 150 156
181 180 177 194 208 217 215 207 156 152 162 188 174 176 237 160 114 141 160 152 173 174 195 210 217 213 199 211 193 195 184 187 177 176 173 171 169 170 162 150 149 159 161 160
173 170 179 185 212 226 225 206 223 168 155 200 243 231 252 168 321 174 173 170 147 161 175 172 166 202 206 210 202 202 193 191 190 188 186 179 184 181 178 177 176 178 172 173
177 176 196 196 183 221 232 220 230 235 220 51 39 277 12 237 260 306 192 207 235 219 196 177 181 197 203 209 204 202 196 200 201 197 204 193 191 194 192 193 200 191 195 192
190 190 194 183 185 201 209 228 236 245 247 240 270 282 294 253 303 311 243 248 218 219 194 206 184 186 189 220 221 227 208 210 206 209 207 207 203 207 206 210 208 207 208 206
204 192 191 198 190 181 198 202 216 222 225 238 218 236 256 256 269 295 279 262 269 214 200 204 208 204 189 186 209 215 211 208 210 211 217 215 210 208 212 212 217 225 223 220
206 195 194 185 192 169 187 201 204 217 217 219 222 240 245 258 240 247 222 274 277 221 210 204 215 211 213 206 205 211 228 224 234 215 213 222 216 209 213 216 219 223 226 233
216 211 193 188 194 191 199 200 211 216 221 215 218 225 244 254 252 215 225 220 195 204 242 209 225 225 232 226 228 221 218 235 253 237 216 217 221 220 216 219 225 230 228 225
236 226 195 197 198 202 198 214 210 212 219 225 226 228 240 244 248 226 213 214 243 234 224 227 216 219 221 227 224 233 231 230 248 251 208 214 227 224 222 224 227 227 228 231
228 235 233 241 230 195 206 210 218 215 205 211 216 222 233 243 245 231 222 230 255 273 249 230 216 210 216 217 226 236 243 242 258 231 231 218 218 231 230 222 227 234 234 233
226 233 240 236 238 226 234 229 217 215 212 207 213 223 229 241 244 245 245 249 263 259 279 251 223 207 193 213 221 228 242 243 244 237 229 225 224 224 231 231 222 228 234 238
242 238 240 225 232 233 227 235 225 215 221 219 224 233 237 238 248 245 250 258 268 273 271 216 200 205 203 205 211 224 231 239 238 239 208 214 221 245 231 228 225 227 236 240
235 231 235 239 227 228 223 230 228 216 210 221 225 233 242 249 251 254 245 250 259 264 267 255 264 295 259 198 205 210 221 232 232 223 217 218 231 225 220 221 218 219 236 246
263 238 258 243 232 237 234 232 242 237 232 222 228 234 242 248 253 259 260 256 259 263 279 276 273 276 256 248 252 234 222 230 234 241 249 247 255 256 247 243 240 243 254 255
243 250 267 249 251 249 241 238 238 242 246 244 230 234 243 250 253 255 258 262 261 269 274 272 264 269 278 257 252 247 241 246 251 264 258 246 249 252 253 254 255 252 252 257
250 268 268 259 262 262 255 246 239 244 254 255 256 257 256 252 247 247 250 258 266 271 273 274 274 263 261 239 237 240 243 248 251 256 255 251 246 247 246 247 251 255 260 261
289 287 289 285 283 277 268 259 252 246 243 249 251 255 264 263 260 254 259 260 266 267 269 269 264 256 245 247 252 245 249 254 258 259 257 250 248 250 250 254 253 258 261 263
295 302 304 305 297 287 272 260 251 245 242 243 250 257 249 253 262 257 268 254 260 267 269 267 261 251 251 252 263 261 253 258 258 256 254 252 251 250 248 250 251 255 259 262
322 322 327 322 316 296 271 258 253 242 240 241 248 254 251 255 253 258 252 255 256 269 269 268 264 254 248 249 251 257 253 255 259 255 254 254 253 255 254 256 255 257 261 262
315 321 327 330 345 323 295 280 256 237 234 230 260 257 253 254 256 252 252 247 254 259 258 261 264 264 259 255 253 251 251 253 254 256 257 257 256 256 255 255 256 258 261 262